Preview of NWS' New Version of Forecast
This preview is not operational and should not be used for support decisions.

Regional Weather Roundup (RWR)

Issued by National Weather Service (NWS)

                            
000
ASUS43 KBIS 181110
RWRND 

NORTH DAKOTA REGIONAL WEATHER ROUNDUP
NATIONAL WEATHER SERVICE BISMARCK ND
600 AM CDT THU APR 18 2019

NOTE: "FAIR" INDICATES FEW OR NO CLOUDS BELOW 12,000 FEET WITH NO
SIGNIFICANT WEATHER AND/OR OBSTRUCTIONS TO VISIBILITY.


NDZ001>003-009>011-017-181200-
NORTHWEST NORTH DAKOTA
  
CITY           SKY/WX    TMP DP  RH WIND       PRES   REMARKS
WILLISTON      CLEAR     31  29  92 CALM      29.95R                  
MINOT          FOG       39  38  96 W5        29.91R VSB 1/2          
MINOT AFB      CLOUDY    37  37 100 CALM      29.90R                  
$$
 
NDZ018>021-031>035-040>046-181200-
SOUTHWEST NORTH DAKOTA
  
CITY           SKY/WX    TMP DP  RH WIND       PRES   REMARKS
BISMARCK       FOG       35  35 100 CALM      29.91R VSB 1/4          
DICKINSON      CLEAR     33  29  85 W12       29.90R                  
GARRISON         N/A     32  32 100 CALM      29.89R                  
HETTINGER ARPT CLEAR     35  31  85 W13       29.93R                  
$$
 
NDZ004>008-012>016-024-026-027-054-181200-
NORTHEAST NORTH DAKOTA
  
CITY           SKY/WX    TMP DP  RH WIND       PRES   REMARKS
GRAND FORKS    MOCLDY    35  34  96 W6        29.85R                  
GRND FRKS AFB  MOCLDY    38  38 100 NW7       29.86R                  
DEVILS LAKE    PTCLDY    36  36 100 NW7       29.89S                  
$$
 
NDZ022-023-025-028>030-036>039-047>053-181200-
SOUTHEAST NORTH DAKOTA
  
CITY           SKY/WX    TMP DP  RH WIND       PRES   REMARKS
FARGO          CLOUDY    41  40  96 N6        29.85R                  
JAMESTOWN      PTCLDY    35  35 100 NW6       29.87R FOG              
$$